Weather History for KGWO - April, 2014

Change the Weather History Date:

Sunday, April 27, 2014

  Actual Average Record
Temperature  
Mean Temperature 77 °F 67 °F  
Max Temperature 85 °F 78 °F 93 °F (1987)
Min Temperature 68 °F 55 °F 40 °F (1992)
Degree Days  
Heating Degree Days 0 2  
Month to date heating degree days 135 118  
Since 1 July heating degree days 3227 2665  
Cooling Degree Days 12 4  
Month to date cooling degree days 56 64  
Year to date cooling degree days 60 90  
Growing Degree Days 25 (Base 50)    
Moisture  
Dew Point 67 °F    
Average Humidity 76    
Maximum Humidity 93    
Minimum Humidity 58    
Precipitation  
Precipitation 0.25 in 0.16 in 2.52 in (1991)
Month to date precipitation 8.72 4.62  
Year to date precipitation 19.08 17.87  
Sea Level Pressure  
Sea Level Pressure 29.75 in    
Wind  
Wind Speed 14 mph (SSE)    
Max Wind Speed 26 mph    
Max Gust Speed 33 mph    
Visibility 9 miles    
Events Rain    
T = Trace of Precipitation, MM = Missing Value Source: NWS Daily Summary

Daily Weather History Graph

Daily Weather History Graph

Search for Another Location

Airport or City:

Trip Planner

Search our weather history database for the weather conditions in past years. The results will help you decide how hot, cold, wet, or windy it might be!

Date:

Astronomy

Apr. 27, 2014 Rise Set
Actual Time 6:16 AM CDT 7:40 PM CDT
Civil Twilight 5:49 AM CDT 8:06 PM CDT
Nautical Twilight 5:18 AM CDT 8:37 PM CDT
Astronomical Twilight 4:45 AM CDT 9:10 PM CDT
Moon 5:10 AM CDT (4/27) 6:18 PM CDT (4/27)
Length of Visible Light 14h 16m
Length of Day
13h 24m
Waning Crescent, 3% of the Moon is Illuminated
Apr 27
Waning Crescent
Apr 29
New
May 6
First Quarter
May 14
Full
May 21
Last Quarter

Hourly Weather History & Observations

Time (CDT) Temp. Heat Index Dew Point Humidity Pressure Visibility Wind Dir Wind Speed Gust Speed Precip Events Conditions
12:53 AM 71.1 °F - 63.0 °F 75% 29.85 in 10.0 mi South 9.2 mph - N/A   Clear
1:53 AM 70.0 °F - 64.9 °F 84% 29.83 in 10.0 mi South 6.9 mph - N/A   Clear
2:53 AM 69.1 °F - 66.0 °F 90% 29.82 in 10.0 mi South 6.9 mph - N/A   Clear
3:53 AM 69.8 °F - 66.2 °F 88% 29.82 in 10.0 mi South 6.9 mph - N/A   Partly Cloudy
4:53 AM 69.1 °F - 66.0 °F 90% 29.81 in 10.0 mi SSE 8.1 mph - N/A   Scattered Clouds
5:53 AM 69.1 °F - 66.0 °F 90% 29.80 in 10.0 mi SSE 6.9 mph - N/A   Mostly Cloudy
6:44 AM 70.0 °F - 66.0 °F 87% 29.83 in 9.0 mi South 12.7 mph - N/A   Overcast
6:53 AM 69.8 °F - 66.2 °F 88% 29.82 in 9.0 mi South 11.5 mph - N/A   Mostly Cloudy
7:02 AM 70.0 °F - 66.9 °F 90% 29.80 in 9.0 mi South 12.7 mph - 0.00 in Rain Light Rain
7:53 AM 70.0 °F - 66.9 °F 90% 29.84 in 8.0 mi South 12.7 mph - 0.01 in Rain Light Rain
8:44 AM 69.1 °F - 66.0 °F 90% 29.85 in 2.5 mi South 12.7 mph - 0.11 in Rain Heavy Rain
8:53 AM 68.0 °F - 66.0 °F 93% 29.84 in 2.5 mi South 16.1 mph - 0.16 in Rain Light Rain
8:55 AM 68.0 °F - 66.0 °F 93% 29.84 in 3.0 mi South 16.1 mph - 0.00 in Rain Light Rain
9:48 AM 68.0 °F - 64.4 °F 88% 29.79 in 2.5 mi SSE 11.5 mph - 0.08 in Rain Light Rain
9:53 AM 69.1 °F - 64.9 °F 87% 29.78 in 7.0 mi SE 12.7 mph - 0.08 in Rain Light Rain
10:53 AM 70.0 °F - 66.9 °F 90% 29.80 in 10.0 mi SSE 11.5 mph - 0.00 in   Overcast
11:53 AM 71.1 °F - 66.9 °F 87% 29.78 in 10.0 mi SE 11.5 mph 20.7 mph N/A   Scattered Clouds
12:53 PM 75.9 °F - 68.0 °F 76% 29.73 in 10.0 mi SE 19.6 mph 26.5 mph N/A   Partly Cloudy
1:27 PM 77.0 °F - 66.9 °F 71% 29.73 in 10.0 mi SSE 18.4 mph 25.3 mph N/A   Mostly Cloudy
1:45 PM 77.0 °F - 66.9 °F 71% 29.72 in 10.0 mi SE 16.1 mph 25.3 mph N/A   Mostly Cloudy
1:53 PM 79.0 °F - 68.0 °F 69% 29.71 in 10.0 mi SSE 17.3 mph 28.8 mph N/A   Scattered Clouds
2:26 PM 79.0 °F - 69.1 °F 72% 29.70 in 10.0 mi SSE 13.8 mph 23.0 mph N/A   Mostly Cloudy
2:53 PM 80.6 °F 83.9 °F 69.8 °F 70% 29.68 in 10.0 mi SSE 17.3 mph 27.6 mph N/A   Mostly Cloudy
3:53 PM 82.9 °F 86.5 °F 69.1 °F 63% 29.65 in 10.0 mi South 19.6 mph 26.5 mph N/A   Mostly Cloudy
4:53 PM 82.9 °F 85.0 °F 66.0 °F 56% 29.63 in 10.0 mi South 20.7 mph 28.8 mph N/A   Mostly Cloudy
5:53 PM 82.0 °F 84.1 °F 66.0 °F 58% 29.63 in 10.0 mi SSE 15.0 mph - N/A   Overcast
6:53 PM 80.1 °F 82.1 °F 66.0 °F 62% 29.64 in 10.0 mi SE 11.5 mph - N/A   Mostly Cloudy
7:53 PM 78.1 °F - 64.9 °F 64% 29.61 in 10.0 mi SE 13.8 mph - N/A   Scattered Clouds
8:53 PM 78.1 °F - 66.0 °F 66% 29.62 in 10.0 mi SSE 13.8 mph 25.3 mph N/A   Partly Cloudy
9:53 PM 77.0 °F - 68.0 °F 74% 29.64 in 10.0 mi South 17.3 mph - N/A   Mostly Cloudy
10:53 PM 75.9 °F - 68.0 °F 76% 29.66 in 10.0 mi South 13.8 mph - N/A   Overcast
11:53 PM 75.2 °F - 68.0 °F 78% 29.66 in 10.0 mi South 16.1 mph - N/A   Overcast